#Datum;Uhrzeit;WR;Pac;DaySum;Status;WR;Pac;DaySum;Status;Pdc1;Udc;Temp;WR;Pac;DaySum;Status;Pdc1;Udc;Temp;WR;Pac;DaySum;Status;Pdc1;Udc;Temp;WR;Pac;DaySum;Status;Pdc1;Pdc2;Udc1;Udc2;Temp;WR;Pac;DaySum;Status;Pdc1;Pdc2;Udc1;Udc2;Temp;WR;Pac;DaySum;Status;Pdc1;Udc;Temp;WR;Pac;DaySum;Status;Pdc1;Udc;Temp;WR;Pac;DaySum;Status;Pdc1;Udc;Temp
13.02.19;23:55:00;1;214;12772;0;2;0;20729;0;0;0;0;3;0;13338;0;0;0;0;4;0;17842;0;0;0;0;5;0;44416;0;0;0;0;0;0;6;0;34525;0;0;0;0;0;0;7;0;30867;0;0;0;0;8;0;30462;0;0;0;0;9;0;16555;0;0;0;0
13.02.19;23:50:00;1;216;12754;0;2;0;20729;0;0;0;0;3;0;13338;0;0;0;0;4;0;17842;0;0;0;0;5;0;44416;0;0;0;0;0;0;6;0;34525;0;0;0;0;0;0;7;0;30867;0;0;0;0;8;0;30462;0;0;0;0;9;0;16555;0;0;0;0
13.02.19;23:45:00;1;622;12736;0;2;0;20729;0;0;0;0;3;0;13338;0;0;0;0;4;0;17842;0;0;0;0;5;0;44416;0;0;0;0;0;0;6;0;34525;0;0;0;0;0;0;7;0;30867;0;0;0;0;8;0;30462;0;0;0;0;9;0;16555;0;0;0;0
13.02.19;23:40:00;1;216;12692;0;2;0;20729;0;0;0;0;3;0;13338;0;0;0;0;4;0;17842;0;0;0;0;5;0;44416;0;0;0;0;0;0;6;0;34525;0;0;0;0;0;0;7;0;30867;0;0;0;0;8;0;30462;0;0;0;0;9;0;16555;0;0;0;0
13.02.19;23:35:00;1;217;12674;0;2;0;20729;0;0;0;0;3;0;13338;0;0;0;0;4;0;17842;0;0;0;0;5;0;44416;0;0;0;0;0;0;6;0;34525;0;0;0;0;0;0;7;0;30867;0;0;0;0;8;0;30462;0;0;0;0;9;0;16555;0;0;0;0
13.02.19;23:30:00;1;424;12656;0;2;0;20729;0;0;0;0;3;0;13338;0;0;0;0;4;0;17842;0;0;0;0;5;0;44416;0;0;0;0;0;0;6;0;34525;0;0;0;0;0;0;7;0;30867;0;0;0;0;8;0;30462;0;0;0;0;9;0;16555;0;0;0;0
13.02.19;23:25:00;1;3395;12611;0;2;0;20729;0;0;0;0;3;0;13338;0;0;0;0;4;0;17842;0;0;0;0;5;0;44416;0;0;0;0;0;0;6;0;34525;0;0;0;0;0;0;7;0;30867;0;0;0;0;8;0;30462;0;0;0;0;9;0;16555;0;0;0;0
13.02.19;23:20:00;1;254;12342;0;2;0;20729;0;0;0;0;3;0;13338;0;0;0;0;4;0;17842;0;0;0;0;5;0;44416;0;0;0;0;0;0;6;0;34525;0;0;0;0;0;0;7;0;30867;0;0;0;0;8;0;30462;0;0;0;0;9;0;16555;0;0;0;0
13.02.19;23:15:00;1;278;12319;0;2;0;20729;0;0;0;0;3;0;13338;0;0;0;0;4;0;17842;0;0;0;0;5;0;44416;0;0;0;0;0;0;6;0;34525;0;0;0;0;0;0;7;0;30867;0;0;0;0;8;0;30462;0;0;0;0;9;0;16555;0;0;0;0
13.02.19;23:10:00;1;641;12296;0;2;0;20729;0;0;0;0;3;0;13338;0;0;0;0;4;0;17842;0;0;0;0;5;0;44416;0;0;0;0;0;0;6;0;34525;0;0;0;0;0;0;7;0;30867;0;0;0;0;8;0;30462;0;0;0;0;9;0;16555;0;0;0;0
13.02.19;23:05:00;1;280;12246;0;2;0;20729;0;0;0;0;3;0;13338;0;0;0;0;4;0;17842;0;0;0;0;5;0;44416;0;0;0;0;0;0;6;0;34525;0;0;0;0;0;0;7;0;30867;0;0;0;0;8;0;30462;0;0;0;0;9;0;16555;0;0;0;0
13.02.19;23:00:00;1;281;12223;0;2;0;20729;0;0;0;0;3;0;13338;0;0;0;0;4;0;17842;0;0;0;0;5;0;44416;0;0;0;0;0;0;6;0;34525;0;0;0;0;0;0;7;0;30867;0;0;0;0;8;0;30462;0;0;0;0;9;0;16555;0;0;0;0
13.02.19;22:55:00;1;282;12199;0;2;0;20729;0;0;0;0;3;0;13338;0;0;0;0;4;0;17842;0;0;0;0;5;0;44416;2;0;0;0;0;0;6;0;34525;2;0;0;0;0;0;7;0;30867;0;0;0;0;8;0;30462;0;0;0;0;9;0;16555;0;0;0;0
13.02.19;22:50:00;1;486;12170;0;2;0;20729;0;0;0;0;3;0;13338;0;0;0;0;4;0;17842;0;0;0;0;5;0;44416;2;0;0;0;0;0;6;0;34525;2;0;0;0;0;0;7;0;30867;0;0;0;0;8;0;30462;0;0;0;0;9;0;16555;0;0;0;0
13.02.19;22:45:00;1;280;12126;0;2;0;20729;0;0;0;0;3;0;13338;0;0;0;0;4;0;17842;0;0;0;0;5;0;44416;2;0;0;0;0;0;6;0;34525;2;0;0;0;0;0;7;0;30867;0;0;0;0;8;0;30462;0;0;0;0;9;0;16555;0;0;0;0
13.02.19;22:40:00;1;218;12103;0;2;0;20729;0;0;0;0;3;0;13338;0;0;0;0;4;0;17842;0;0;0;0;5;0;44416;2;0;0;0;0;0;6;0;34525;2;0;0;0;0;0;7;0;30867;0;0;0;0;8;0;30462;0;0;0;0;9;0;16555;0;0;0;0
13.02.19;22:35:00;1;446;12085;0;2;0;20729;0;0;0;0;3;0;13338;0;0;0;0;4;0;17842;0;0;0;0;5;0;44416;2;0;0;0;0;0;6;0;34525;2;0;0;0;0;0;7;0;30867;0;0;0;0;8;0;30462;0;0;0;0;9;0;16555;0;0;0;0
13.02.19;22:30:00;1;259;12038;0;2;0;20729;0;0;0;0;3;0;13338;0;0;0;0;4;0;17842;0;0;0;0;5;0;44416;2;0;0;0;0;0;6;0;34525;2;0;0;0;0;0;7;0;30867;0;0;0;0;8;0;30462;0;0;0;0;9;0;16555;0;0;0;0
13.02.19;22:25:00;1;262;12016;0;2;0;20729;0;0;0;0;3;0;13338;0;0;0;0;4;0;17842;0;0;0;0;5;0;44416;2;0;0;0;0;0;6;0;34525;2;0;0;0;0;0;7;0;30867;0;0;0;0;8;0;30462;0;0;0;0;9;0;16555;0;0;0;0
13.02.19;22:20:00;1;289;11994;0;2;0;20729;0;0;0;0;3;0;13338;0;0;0;0;4;0;17842;0;0;0;0;5;0;44416;2;0;0;0;0;0;6;0;34525;2;0;0;0;0;0;7;0;30867;0;0;0;0;8;0;30462;0;0;0;0;9;0;16555;0;0;0;0
13.02.19;22:15:00;1;594;11968;0;2;0;20729;0;0;0;0;3;0;13338;0;0;0;0;4;0;17842;0;0;0;0;5;0;44416;2;0;0;0;0;0;6;0;34525;2;0;0;0;0;0;7;0;30867;0;0;0;0;8;0;30462;0;0;0;0;9;0;16555;0;0;0;0
13.02.19;22:10:00;1;405;11909;0;2;0;20729;0;0;0;0;3;0;13338;0;0;0;0;4;0;17842;0;0;0;0;5;0;44416;2;0;0;0;0;0;6;0;34525;2;0;0;0;0;0;7;0;30867;0;0;0;0;8;0;30462;0;0;0;0;9;0;16555;0;0;0;0
13.02.19;22:05:00;1;401;11876;0;2;0;20729;0;0;0;0;3;0;13338;0;0;0;0;4;0;17842;0;0;0;0;5;0;44416;2;0;0;0;0;0;6;0;34525;2;0;0;0;0;0;7;0;30867;0;0;0;0;8;0;30462;0;0;0;0;9;0;16555;0;0;0;0
13.02.19;22:00:00;1;592;11843;0;2;0;20729;0;0;0;0;3;0;13338;0;0;0;0;4;0;17842;0;0;0;0;5;0;44416;2;0;0;0;0;0;6;0;34525;2;0;0;0;0;0;7;0;30867;0;0;0;0;8;0;30462;0;0;0;0;9;0;16555;0;0;0;0
13.02.19;21:55:00;1;614;11785;0;2;0;20729;0;0;0;0;3;0;13338;0;0;0;0;4;0;17842;0;0;0;0;5;0;44416;2;0;0;0;0;0;6;0;34525;2;0;0;0;0;0;7;0;30867;0;0;0;0;8;0;30462;0;0;0;0;9;0;16555;0;0;0;0
13.02.19;21:50:00;1;424;11749;0;2;0;20729;0;0;0;0;3;0;13338;0;0;0;0;4;0;17842;0;0;0;0;5;0;44416;2;0;0;0;0;0;6;0;34525;2;0;0;0;0;0;7;0;30867;0;0;0;0;8;0;30462;0;0;0;0;9;0;16555;0;0;0;0
13.02.19;21:45:00;1;424;11714;0;2;0;20729;0;0;0;0;3;0;13338;0;0;0;0;4;0;17842;0;0;0;0;5;0;44416;2;0;0;0;0;0;6;0;34525;2;0;0;0;0;0;7;0;30867;0;0;0;0;8;0;30462;0;0;0;0;9;0;16555;0;0;0;0
13.02.19;21:40:00;1;852;11678;0;2;0;20729;0;0;0;0;3;0;13338;0;0;0;0;4;0;17842;0;0;0;0;5;0;44416;2;0;0;0;0;0;6;0;34525;2;0;0;0;0;0;7;0;30867;0;0;0;0;8;0;30462;0;0;0;0;9;0;16555;0;0;0;0
13.02.19;21:35:00;1;461;11616;0;2;0;20729;0;0;0;0;3;0;13338;0;0;0;0;4;0;17842;0;0;0;0;5;0;44416;2;0;0;0;0;0;6;0;34525;2;0;0;0;0;0;7;0;30867;0;0;0;0;8;0;30462;0;0;0;0;9;0;16555;0;0;0;0
13.02.19;21:30:00;1;478;11577;0;2;0;20729;0;0;0;0;3;0;13338;0;0;0;0;4;0;17842;0;0;0;0;5;0;44416;2;0;0;0;0;0;6;0;34525;2;0;0;0;0;0;7;0;30867;0;0;0;0;8;0;30462;0;0;0;0;9;0;16555;0;0;0;0
13.02.19;21:25:00;1;867;11537;0;2;0;20729;0;0;0;0;3;0;13338;0;0;0;0;4;0;17842;0;0;0;0;5;0;44416;2;0;0;0;0;0;6;0;34525;2;0;0;0;0;0;7;0;30867;0;0;0;0;8;0;30462;0;0;0;0;9;0;16555;0;0;0;0
13.02.19;21:20:00;1;556;11454;0;2;0;20729;0;0;0;0;3;0;13338;0;0;0;0;4;0;17842;0;0;0;0;5;0;44416;2;0;0;0;0;0;6;0;34525;2;0;0;0;0;0;7;0;30867;0;0;0;0;8;0;30462;0;0;0;0;9;0;16555;0;0;0;0
13.02.19;21:15:00;1;402;11395;0;2;0;20729;0;0;0;0;3;0;13338;0;0;0;0;4;0;17842;0;0;0;0;5;0;44416;2;0;0;0;0;0;6;0;34525;2;0;0;0;0;0;7;0;30867;0;0;0;0;8;0;30462;0;0;0;0;9;0;16555;0;0;0;0
13.02.19;21:10:00;1;444;11361;0;2;0;20729;0;0;0;0;3;0;13338;0;0;0;0;4;0;17842;0;0;0;0;5;0;44416;2;0;0;0;0;0;6;0;34525;2;0;0;0;0;0;7;0;30867;0;0;0;0;8;0;30462;0;0;0;0;9;0;16555;0;0;0;0
13.02.19;21:05:00;1;703;11323;0;2;0;20729;0;0;0;0;3;0;13338;0;0;0;0;4;0;17842;0;0;0;0;5;0;44416;2;0;0;0;0;0;6;0;34525;2;0;0;0;0;0;7;0;30867;0;0;0;0;8;0;30462;0;0;0;0;9;0;16555;0;0;0;0
13.02.19;21:00:00;1;462;11255;0;2;0;20729;0;0;0;0;3;0;13338;0;0;0;0;4;0;17842;0;0;0;0;5;0;44416;2;0;0;0;0;0;6;0;34525;2;0;0;0;0;0;7;0;30867;0;0;0;0;8;0;30462;0;0;0;0;9;0;16555;0;0;0;0
13.02.19;20:55:00;1;436;11217;0;2;0;20729;0;0;0;0;3;0;13338;0;0;0;0;4;0;17842;0;0;0;0;5;0;44416;2;0;0;0;0;0;6;0;34525;2;0;0;0;0;0;7;0;30867;0;0;0;0;8;0;30462;0;0;0;0;9;0;16555;0;0;0;0
13.02.19;20:50:00;1;325;11180;0;2;0;20729;0;0;0;0;3;0;13338;0;0;0;0;4;0;17842;0;0;0;0;5;0;44416;2;0;0;0;0;0;6;0;34525;2;0;0;0;0;0;7;0;30867;0;0;0;0;8;0;30462;0;0;0;0;9;0;16555;0;0;0;0
13.02.19;20:45:00;1;476;11152;0;2;0;20729;0;0;0;0;3;0;13338;0;0;0;0;4;0;17842;0;0;0;0;5;0;44416;2;0;0;0;0;0;6;0;34525;2;0;0;0;0;0;7;0;30867;0;0;0;0;8;0;30462;0;0;0;0;9;0;16555;0;0;0;0
13.02.19;20:40:00;1;238;11103;0;2;0;20729;0;0;0;0;3;0;13338;0;0;0;0;4;0;17842;0;0;0;0;5;0;44416;2;0;0;0;0;0;6;0;34525;2;0;0;0;0;0;7;0;30867;0;0;0;0;8;0;30462;0;0;0;0;9;0;16555;0;0;0;0
13.02.19;20:35:00;1;270;11083;0;2;0;20729;0;0;0;0;3;0;13338;0;0;0;0;4;0;17842;0;0;0;0;5;0;44416;2;0;0;0;0;0;6;0;34525;2;0;0;0;0;0;7;0;30867;0;0;0;0;8;0;30462;0;0;0;0;9;0;16555;0;0;0;0
13.02.19;20:30:00;1;529;11059;0;2;0;20729;0;0;0;0;3;0;13338;0;0;0;0;4;0;17842;0;0;0;0;5;0;44416;2;0;0;0;0;0;6;0;34525;2;0;0;0;0;0;7;0;30867;0;0;0;0;8;0;30462;0;0;0;0;9;0;16555;0;0;0;0
13.02.19;20:25:00;1;360;11005;0;2;0;20729;0;0;0;0;3;0;13338;0;0;0;0;4;0;17842;0;0;0;0;5;0;44416;2;0;0;0;0;0;6;0;34525;2;0;0;0;0;0;7;0;30867;0;0;0;0;8;0;30462;0;0;0;0;9;0;16555;0;0;0;0
13.02.19;20:20:00;1;415;10974;0;2;0;20729;0;0;0;0;3;0;13338;0;0;0;0;4;0;17842;0;0;0;0;5;0;44416;2;0;0;0;0;0;6;0;34525;2;0;0;0;0;0;7;0;30867;0;0;0;0;8;0;30462;0;0;0;0;9;0;16555;0;0;0;0
13.02.19;20:15:00;1;411;10940;0;2;0;20729;0;0;0;0;3;0;13338;0;0;0;0;4;0;17842;0;0;0;0;5;0;44416;2;0;0;0;0;0;6;0;34525;2;0;0;0;0;0;7;0;30867;0;0;0;0;8;0;30462;0;0;0;0;9;0;16555;0;0;0;0
13.02.19;20:10:00;1;768;10905;0;2;0;20729;0;0;0;0;3;0;13338;0;0;0;0;4;0;17842;0;0;0;0;5;0;44416;2;0;0;0;0;0;6;0;34525;2;0;0;0;0;0;7;0;30867;0;0;0;0;8;0;30462;0;0;0;0;9;0;16555;0;0;0;0
13.02.19;20:05:00;1;415;10845;0;2;0;20729;0;0;0;0;3;0;13338;0;0;0;0;4;0;17842;0;0;0;0;5;0;44416;2;0;0;0;0;0;6;0;34525;2;0;0;0;0;0;7;0;30867;0;0;0;0;8;0;30462;0;0;0;0;9;0;16555;0;0;0;0
13.02.19;20:00:00;1;416;10810;0;2;0;20729;0;0;0;0;3;0;13338;0;0;0;0;4;0;17842;0;0;0;0;5;0;44416;2;0;0;0;0;0;6;0;34525;2;0;0;0;0;0;7;0;30867;0;0;0;0;8;0;30462;0;0;0;0;9;0;16555;0;0;0;0
13.02.19;19:55:00;1;619;10775;0;2;0;20729;0;0;0;0;3;0;13338;0;0;0;0;4;0;17842;0;0;0;0;5;0;44416;2;0;0;0;0;0;6;0;34525;2;0;0;0;0;0;7;0;30867;0;0;0;0;8;0;30462;0;0;0;0;9;0;16555;0;0;0;0
13.02.19;19:50:00;1;775;10716;0;2;0;20729;0;0;0;0;3;0;13338;0;0;0;0;4;0;17842;0;0;0;0;5;0;44416;2;0;0;0;0;0;6;0;34525;2;0;0;0;0;0;7;0;30867;0;0;0;0;8;0;30462;0;0;0;0;9;0;16555;0;0;0;0
13.02.19;19:45:00;1;413;10679;0;2;0;20729;0;0;0;0;3;0;13338;0;0;0;0;4;0;17842;0;0;0;0;5;0;44416;2;0;0;0;0;0;6;0;34525;2;0;0;0;0;0;7;0;30867;0;0;0;0;8;0;30462;0;0;0;0;9;0;16555;0;0;0;0
13.02.19;19:40:00;1;438;10644;0;2;0;20729;0;0;0;0;3;0;13338;0;0;0;0;4;0;17842;0;0;0;0;5;0;44416;2;0;0;0;0;0;6;0;34525;2;0;0;0;0;0;7;0;30867;0;0;0;0;8;0;30462;0;0;0;0;9;0;16555;0;0;0;0
13.02.19;19:35:00;1;1065;10607;0;2;0;20729;0;0;0;0;3;0;13338;0;0;0;0;4;0;17842;0;0;0;0;5;0;44416;2;0;0;0;0;0;6;0;34525;2;0;0;0;0;0;7;0;30867;0;0;0;0;8;0;30462;0;0;0;0;9;0;16555;0;0;0;0
13.02.19;19:30:00;1;462;10542;0;2;0;20729;0;0;0;0;3;0;13338;0;0;0;0;4;0;17842;0;0;0;0;5;0;44416;2;0;0;0;0;0;6;0;34525;2;0;0;0;0;0;7;0;30867;0;0;0;0;8;0;30462;0;0;0;0;9;0;16555;0;0;0;0
13.02.19;19:25:00;1;418;10503;0;2;0;20729;0;0;0;0;3;0;13338;0;0;0;0;4;0;17842;0;0;0;0;5;0;44416;2;0;0;0;0;0;6;0;34525;2;0;0;0;0;0;7;0;30867;0;0;0;0;8;0;30462;0;0;0;0;9;0;16555;0;0;0;0
13.02.19;19:20:00;1;412;10468;0;2;0;20729;0;0;0;0;3;0;13338;0;0;0;0;4;0;17842;0;0;0;0;5;0;44416;2;0;0;0;0;0;6;0;34525;2;0;0;0;0;0;7;0;30867;0;0;0;0;8;0;30462;0;0;0;0;9;0;16555;0;0;0;0
13.02.19;19:15:00;1;865;10434;0;2;0;20729;0;0;0;0;3;0;13338;0;0;0;0;4;0;17842;0;0;0;0;5;0;44416;2;0;0;0;0;0;6;0;34525;2;0;0;0;0;0;7;0;30867;0;0;0;0;8;0;30462;0;0;0;0;9;0;16555;0;0;0;0
13.02.19;19:10:00;1;416;10373;0;2;0;20729;0;0;0;0;3;0;13338;0;0;0;0;4;0;17842;0;0;0;0;5;0;44416;2;0;0;0;0;0;6;0;34525;2;0;0;0;0;0;7;0;30867;0;0;0;0;8;0;30462;0;0;0;0;9;0;16555;0;0;0;0
13.02.19;19:05:00;1;411;10339;0;2;0;20729;0;0;0;0;3;0;13338;0;0;0;0;4;0;17842;0;0;0;0;5;0;44416;2;0;0;0;0;0;6;0;34525;2;0;0;0;0;0;7;0;30867;0;0;0;0;8;0;30462;0;0;0;0;9;0;16555;0;0;0;0
13.02.19;19:00:00;1;639;10304;0;2;0;20729;0;0;0;0;3;0;13338;0;0;0;0;4;0;17842;0;0;0;0;5;0;44416;2;0;0;0;0;0;6;0;34525;2;0;0;0;0;0;7;0;30867;0;0;0;0;8;0;30462;0;0;0;0;9;0;16555;0;0;0;0
13.02.19;18:55:00;1;481;10240;0;2;0;20729;0;0;0;0;3;0;13338;0;0;0;0;4;0;17842;0;0;0;0;5;0;44416;2;0;0;0;0;0;6;0;34525;2;0;0;0;0;0;7;0;30867;0;0;0;0;8;0;30462;0;0;0;0;9;0;16555;0;0;0;0
13.02.19;18:50:00;1;507;10200;0;2;0;20729;0;0;0;0;3;0;13338;0;0;0;0;4;0;17842;0;0;0;0;5;0;44416;2;0;0;0;0;0;6;0;34525;2;0;0;0;0;0;7;0;30867;0;0;0;0;8;0;30462;0;0;0;0;9;0;16555;0;0;0;0
13.02.19;18:45:00;1;526;10157;0;2;0;20729;0;0;0;0;3;0;13338;0;0;0;0;4;0;17842;0;0;0;0;5;0;44416;2;0;0;0;0;0;6;0;34525;2;0;0;0;0;0;7;0;30867;0;0;0;0;8;0;30462;0;0;0;0;9;0;16555;0;0;0;0
13.02.19;18:40:00;1;933;10113;0;2;0;20729;0;0;0;0;3;0;13338;0;0;0;0;4;0;17842;0;0;0;0;5;0;44416;2;0;0;0;0;0;6;0;34525;2;0;0;0;0;0;7;0;30867;0;0;0;0;8;0;30462;0;0;0;0;9;0;16555;0;0;0;0
13.02.19;18:35:00;1;587;10039;0;2;0;20729;0;0;0;0;3;0;13338;0;0;0;0;4;0;17842;0;0;0;0;5;0;44416;2;0;0;0;0;0;6;0;34525;2;0;0;0;0;0;7;0;30867;0;0;0;0;8;0;30462;0;0;0;0;9;0;16555;0;0;0;0
13.02.19;18:30:00;1;573;9991;0;2;0;20729;0;0;0;0;3;0;13338;0;0;0;0;4;0;17842;0;0;0;0;5;0;44416;2;0;0;0;0;0;6;0;34525;2;0;0;0;0;0;7;0;30867;0;0;0;0;8;0;30462;0;0;0;0;9;0;16555;0;0;0;0
13.02.19;18:25:00;1;536;9943;0;2;0;20729;0;0;0;0;3;0;13338;0;0;0;0;4;0;17842;0;0;0;0;5;0;44416;2;0;0;0;0;0;6;0;34525;2;0;0;0;0;0;7;0;30867;0;0;0;0;8;0;30462;0;0;0;0;9;0;16555;0;0;0;0
13.02.19;18:20:00;1;696;9898;0;2;0;20729;0;0;0;0;3;0;13338;0;0;0;0;4;0;17842;0;0;0;0;5;0;44416;2;0;0;0;0;0;6;0;34525;2;0;0;0;0;0;7;0;30867;0;0;0;0;8;0;30462;0;0;0;0;9;0;16555;0;0;0;0
13.02.19;18:15:00;1;507;9831;0;2;0;20729;0;0;0;0;3;0;13338;0;0;0;0;4;0;17842;0;0;0;0;5;0;44416;2;0;0;0;0;0;6;0;34525;2;0;0;0;0;0;7;0;30867;0;0;0;0;8;0;30462;0;0;0;0;9;0;16555;0;0;0;0
13.02.19;18:10:00;1;465;9789;0;2;0;20729;0;0;0;0;3;0;13338;0;0;0;0;4;0;17842;0;0;0;0;5;0;44416;2;0;0;0;0;0;6;0;34525;2;0;0;0;0;0;7;0;30867;0;0;0;0;8;0;30462;0;0;0;0;9;0;16555;0;0;0;0
13.02.19;18:05:00;1;877;9751;0;2;0;20729;0;0;0;0;3;0;13338;0;0;0;0;4;0;17842;0;0;0;0;5;0;44416;2;0;0;0;0;0;6;0;34525;2;0;0;0;0;0;7;0;30867;0;0;0;0;8;0;30462;0;0;0;0;9;0;16555;0;0;0;0
13.02.19;18:00:00;1;466;9685;0;2;0;20729;0;0;0;0;3;0;13338;0;0;0;0;4;0;17842;0;0;0;0;5;0;44416;2;0;0;0;0;0;6;0;34525;2;0;0;0;0;0;7;0;30867;0;0;0;0;8;0;30462;0;0;0;0;9;0;16555;0;0;0;0
13.02.19;17:55:00;1;470;9647;0;2;0;20729;0;0;0;0;3;0;13338;0;0;0;0;4;0;17842;0;0;0;0;5;0;44416;2;0;0;0;0;0;6;0;34525;2;0;0;0;0;0;7;0;30867;0;0;0;0;8;0;30462;0;0;0;0;9;0;16555;0;0;0;0
13.02.19;17:50:00;1;453;9607;0;2;0;20729;0;0;35;2;3;0;13338;0;0;113;6;4;0;17842;0;0;0;0;5;0;44416;2;0;0;0;0;0;6;0;34525;2;0;0;0;0;0;7;0;30867;0;0;0;0;8;0;30462;0;0;0;0;9;0;16555;0;0;0;0
13.02.19;17:45:00;1;691;9569;0;2;0;20729;6;0;292;14;3;0;13338;6;0;335;17;4;0;17842;0;0;38;9;5;0;44416;2;0;0;0;0;0;6;0;34525;0;0;0;0;0;0;7;0;30867;0;0;0;0;8;0;30462;0;0;0;0;9;0;16555;0;0;0;0
13.02.19;17:40:00;1;476;9505;0;2;0;20729;6;0;339;15;3;0;13338;6;1;404;17;4;0;17842;1;0;92;14;5;0;44416;1;4;20;180;178;20;6;0;34525;2;3;0;80;49;7;7;0;30867;0;0;0;0;8;0;30462;0;0;0;0;9;0;16555;0;0;0;0
13.02.19;17:35:00;1;493;9465;0;2;0;20729;6;0;382;15;3;1;13338;6;3;457;17;4;0;17842;1;0;157;15;5;6;44416;1;0;0;392;544;25;6;0;34525;23;5;4;376;328;23;7;0;30867;11;0;311;17;8;0;30462;0;0;267;13;9;0;16555;2;0;317;12
13.02.19;17:30:00;1;706;9424;0;2;0;20729;6;0;401;15;3;2;13338;6;6;462;17;4;0;17842;1;0;202;15;5;7;44416;26;0;0;411;636;25;6;0;34525;23;11;2;182;569;23;7;0;30867;6;0;404;18;8;0;30462;6;0;403;17;9;0;16555;6;1;395;12
13.02.19;17:25:00;1;432;9358;0;2;2;20729;6;7;402;16;3;2;13338;6;5;499;17;4;0;17842;3;0;204;16;5;12;44415;26;0;1;420;660;26;6;0;34525;23;4;1;316;584;24;7;0;30867;6;2;428;18;8;0;30462;6;2;423;18;9;0;16555;6;2;445;13
13.02.19;17:20:00;1;432;9322;0;2;3;20729;6;8;413;16;3;0;13338;6;5;518;18;4;0;17842;3;0;227;16;5;78;44413;4;7;12;381;608;27;6;34;34525;1;11;27;521;501;25;7;2;30867;6;4;461;19;8;1;30462;6;4;460;18;9;1;16555;6;2;495;13
13.02.19;17:15:00;1;457;9286;0;2;37;20729;6;63;372;17;3;0;13338;6;0;552;18;4;1;17842;3;1;199;17;5;106;44406;4;23;26;381;608;27;6;68;34521;4;23;31;476;455;26;7;0;30867;6;0;500;19;8;3;30462;6;16;448;19;9;2;16554;6;4;515;13
13.02.19;17:10:00;1;702;9239;0;2;79;20726;4;112;362;17;3;13;13338;4;25;522;18;4;29;17842;3;30;198;17;5;147;44398;4;45;42;381;608;27;6;94;34516;4;49;64;476;455;26;7;44;30867;4;80;417;20;8;34;30461;6;63;391;19;9;2;16554;6;5;541;14
13.02.19;17:05:00;1;486;9182;0;2;135;20720;4;172;381;18;3;75;13336;4;113;476;19;4;67;17839;3;70;198;18;5;193;44385;4;78;64;381;608;27;6;128;34508;4;57;69;476;455;26;7;97;30863;4;138;441;20;8;81;30459;4;121;429;20;9;4;16554;4;10;548;14
13.02.19;17:00:00;1;321;9142;0;2;223;20708;4;265;393;18;3;120;13330;4;160;468;19;4;137;17834;5;143;226;18;5;268;44369;4;109;102;381;608;27;6;174;34496;4;77;86;476;455;26;7;198;30856;4;235;435;21;8;142;30452;4;181;412;20;9;26;16554;3;42;520;15
13.02.19;16:55:00;1;580;9101;0;2;385;20690;4;431;407;19;3;215;13320;4;254;431;19;4;276;17823;5;287;236;18;5;392;44346;4;182;154;390;608;28;6;276;34481;4;147;172;484;509;26;7;388;30839;4;429;478;21;8;236;30440;4;274;452;20;9;76;16551;4;106;464;15
13.02.19;16:50:00;1;271;9063;0;2;516;20658;4;568;402;20;3;296;13303;4;341;416;19;4;371;17800;5;387;243;19;5;526;44312;4;262;212;410;605;28;6;415;34457;4;224;250;590;566;26;7;581;30807;4;632;474;21;8;321;30421;4;369;471;21;9;101;16545;4;131;474;16
13.02.19;16:45:00;1;1910;9040;0;2;594;20616;4;647;406;20;3;340;13278;4;385;421;20;4;422;17769;5;439;245;19;5;618;44268;4;301;250;407;651;28;6;480;34422;4;222;243;589;573;26;7;727;30759;4;778;472;22;8;385;30394;4;433;492;21;9;109;16537;4;144;522;16
13.02.19;16:40:00;1;2565;8834;0;2;813;20566;4;871;385;21;3;457;13250;4;505;434;20;4;517;17734;5;538;247;19;5;818;44215;4;399;342;416;700;28;6;631;34382;4;287;310;605;576;26;7;1029;30699;4;1096;486;22;8;510;30362;4;559;480;22;9;128;16528;4;162;540;17
13.02.19;16:35:00;1;2326;8635;0;2;916;20499;4;981;397;22;3;493;13212;4;544;435;21;4;547;17691;5;570;247;20;5;928;44145;4;456;386;425;675;29;6;713;34328;4;359;380;603;577;27;7;1147;30615;4;1221;483;23;8;677;30320;4;730;449;22;9;142;16517;4;177;505;17
13.02.19;16:30:00;1;2524;8442;0;2;778;20423;4;835;383;22;3;413;13171;4;462;437;21;4;465;17645;5;484;237;20;5;857;44068;4;422;357;417;670;29;6;661;34269;4;338;357;595;570;27;7;949;30519;4;1018;474;23;8;683;30264;4;729;420;23;9;143;16505;4;174;425;18
13.02.19;16:25:00;1;2250;8224;0;2;853;20358;4;919;387;23;3;460;13137;4;508;434;21;4;494;17607;5;514;229;20;5;975;43996;4;473;407;424;667;29;6;750;34214;4;367;386;600;575;27;7;1053;30440;4;1125;483;24;8;854;30207;4;907;428;23;9;159;16493;4;188;366;18
13.02.19;16:20:00;1;2249;8035;0;2;1003;20288;4;1072;385;24;3;538;13099;4;591;435;22;4;546;17566;5;569;219;21;5;1137;43915;4;566;481;415;679;29;6;879;34152;4;413;432;599;578;27;7;1223;30353;4;1295;478;24;8;1094;30137;4;1162;465;24;9;229;16480;4;262;356;19
13.02.19;16:15:00;1;2261;7847;0;2;1169;20205;4;1247;397;25;3;644;13054;4;699;432;22;4;611;17520;5;637;203;21;5;1363;43818;4;681;582;418;689;30;6;1062;34078;4;523;540;605;580;27;7;1460;30251;4;1550;480;25;8;1368;30046;4;1443;478;24;9;400;16461;4;437;356;20
13.02.19;16:10:00;1;2308;7631;0;2;1433;20106;4;1516;389;26;3;793;13000;4;855;433;23;4;708;17469;5;738;202;22;5;1703;43701;4;864;728;428;706;30;6;1294;33988;4;665;668;608;583;28;7;1810;30130;4;1893;479;25;8;1734;29933;4;1826;486;25;9;622;16428;4;668;385;21
13.02.19;16:05:00;1;1550;7439;0;2;1805;19989;4;1906;395;27;3;998;12935;4;1064;437;23;4;811;17411;5;844;200;22;5;2121;43557;4;1090;921;432;704;30;6;1627;33877;4;844;837;612;585;28;7;2258;29980;4;2380;480;25;8;2211;29792;4;2319;488;25;9;897;16378;4;958;422;22
13.02.19;16:00:00;1;209;7314;0;2;2126;19836;4;2235;392;28;3;1183;12851;4;1255;441;24;4;874;17342;5;910;218;23;5;2615;43376;4;1365;1139;433;707;31;6;2029;33737;4;1034;1031;622;586;28;7;2786;29790;4;2932;487;26;8;2740;29604;4;2875;489;26;9;1219;16302;4;1293;446;23
13.02.19;15:55:00;1;522;7296;0;2;1842;19660;4;1941;385;28;3;1034;12752;4;1102;443;24;4;833;17270;5;867;243;23;5;2414;43160;4;1266;1053;431;710;31;6;1902;33569;4;962;961;613;591;28;7;2519;29558;4;2642;478;26;8;2485;29376;4;2610;488;26;9;1154;16201;4;1228;487;23
13.02.19;15:50:00;1;219;7252;0;2;1729;19508;4;1826;391;29;3;956;12667;4;1022;437;24;4;802;17201;5;835;250;23;5;2279;42962;4;1191;995;426;697;31;6;1762;33415;4;901;899;614;584;28;7;2221;29351;4;2344;483;27;8;2183;29171;4;2297;484;26;9;1068;16105;4;1141;494;24
13.02.19;15:45:00;1;239;7233;0;2;1838;19365;4;1941;402;30;3;1022;12588;4;1091;437;25;4;842;17134;5;877;247;24;5;2536;42768;4;1342;1107;429;689;32;6;1962;33266;4;994;982;608;589;29;7;2416;29166;4;2541;475;27;8;2375;28989;4;2496;481;27;9;1219;16016;4;1298;538;24
13.02.19;15:40:00;1;494;7213;0;2;2009;19213;4;2117;399;31;3;1087;12503;4;1159;441;25;4;868;17064;5;904;247;25;5;2728;42558;4;1425;1190;427;693;32;6;2112;33102;4;1093;1088;607;585;29;7;2573;28965;4;2699;478;28;8;2521;28791;4;2643;483;28;9;1356;15914;4;1445;537;25
13.02.19;15:35:00;1;297;7166;0;2;2158;19046;4;2274;401;32;3;1193;12413;4;1266;426;26;4;936;16992;5;975;249;25;5;3035;42329;4;1622;1326;426;703;32;6;2348;32925;4;1203;1194;612;585;29;7;2859;28751;4;2993;477;28;8;2807;28581;4;2946;481;28;9;1523;15802;4;1619;532;26
13.02.19;15:30:00;1;270;7142;0;2;2550;18867;4;2690;402;33;3;1386;12314;4;1466;424;27;4;1084;16914;5;1129;248;26;5;3569;42078;4;1920;1572;425;679;33;6;2738;32730;4;1405;1385;608;591;29;7;3221;28514;4;3386;470;29;8;3163;28348;4;3312;483;29;9;1700;15675;4;1802;523;27
13.02.19;15:25:00;1;269;7119;0;2;3098;18659;4;3261;403;35;3;1682;12201;4;1773;434;27;4;1339;16825;5;1394;255;26;5;4438;41776;4;2397;1973;428;690;33;6;3446;32498;4;1780;1741;613;586;29;7;4007;28251;4;4204;470;29;8;3965;28089;4;4153;476;29;9;2166;15535;4;2290;522;28
13.02.19;15:20:00;1;513;7097;0;2;3137;18401;4;3308;402;35;3;1710;12061;4;1803;428;28;4;1445;16714;5;1505;240;27;5;4606;41406;4;2483;2055;427;688;33;6;3594;32210;4;1854;1828;607;589;30;7;4088;27917;4;4283;461;29;8;4035;27759;4;4226;473;29;9;2199;15355;4;2329;522;28
13.02.19;15:15:00;1;271;7049;0;2;3007;18140;4;3169;394;35;3;1643;11919;4;1729;424;28;4;1471;16594;5;1532;239;27;5;4526;41025;4;2446;2005;423;683;34;6;3497;31913;4;1820;1776;605;589;30;7;3889;27576;4;4076;470;30;8;3849;27423;4;4039;476;30;9;2122;15172;4;2248;527;28
13.02.19;15:10:00;1;271;7026;0;2;3209;17890;4;3378;401;36;3;1721;11782;4;1813;425;28;4;1634;16471;5;1702;236;28;5;4800;40650;4;2586;2134;422;680;34;6;3731;31622;4;1913;1886;604;585;30;7;4152;27249;4;4358;465;30;8;4113;27097;4;4313;468;30;9;2251;14993;4;2384;524;29
13.02.19;15:05:00;1;271;7003;0;2;3283;17622;4;3458;395;36;3;1786;11638;4;1878;432;29;4;1717;16336;5;1788;240;29;5;5008;40249;4;2715;2237;422;686;34;6;3901;31310;4;2014;1980;602;580;30;7;4264;26903;4;4466;465;30;8;4230;26755;4;4441;465;30;9;2321;14807;4;2456;519;29
13.02.19;15:00:00;1;270;6955;0;2;3307;17349;4;3485;403;36;3;1902;11490;4;2010;474;29;4;1853;16193;5;1930;236;29;5;5109;39832;4;2761;2273;420;675;34;6;3976;30985;4;2027;2000;604;586;30;7;4317;26548;4;4527;465;31;8;4274;26402;4;4483;469;30;9;2351;14612;4;2490;523;29
13.02.19;14:55:00;1;269;6933;0;2;3300;17073;4;3475;400;37;3;2006;11332;4;2121;481;30;4;1952;16039;5;2033;242;30;5;5184;39404;4;2810;2312;417;689;34;6;4037;30652;4;2112;2056;603;577;30;7;4351;26188;4;4569;470;31;8;4334;26047;4;4546;460;31;9;2377;14416;4;2514;514;29
13.02.19;14:50:00;1;278;6910;0;2;3396;16798;4;3577;398;37;3;2154;11164;4;2275;510;31;4;2114;15876;5;2202;238;30;5;5437;38974;4;2955;2422;419;681;35;6;4211;30317;4;2145;2111;602;580;30;7;4443;25825;4;4660;461;31;8;4408;25686;4;4619;465;31;9;2419;14218;4;2557;507;30
13.02.19;14:45:00;1;600;6886;0;2;3556;16515;4;3749;401;37;3;2303;10985;4;2435;511;31;4;2249;15700;5;2343;232;31;5;5731;38519;4;3123;2555;415;672;35;6;4457;29964;4;2274;2237;602;574;30;7;4637;25456;4;4853;459;31;8;4592;25319;4;4816;458;31;9;2523;14017;4;2668;518;30
13.02.19;14:40:00;1;313;6835;0;2;3626;16219;4;3817;400;38;3;2349;10794;4;2482;515;31;4;2375;15514;5;2473;233;31;5;5939;38041;4;3215;2653;415;674;35;6;4639;29590;4;2402;2341;602;582;30;7;4779;25071;4;5008;458;32;8;4743;24938;4;4970;465;31;9;2612;13808;4;2761;515;31
13.02.19;14:35:00;1;278;6808;0;2;3607;15917;4;3803;399;38;3;2337;10598;4;2471;519;31;4;2487;15315;5;2590;234;32;5;6021;37545;4;3279;2690;418;669;35;6;4698;29203;4;2449;2380;599;575;31;7;4804;24674;4;5040;464;32;8;4780;24543;4;5006;463;32;9;2623;13591;4;2784;513;31